owner,sensor,date,latitude,longitude,vertical_datum,sea_water_temperature,qcFlag 
TCOON,ioos:station:TCOON:518:1,2013-05-01T00:00:00Z,29.5150,-94.5133,0.0,23.4,2 
TCOON,ioos:station:TCOON:518:1,2013-05-01T01:00:00Z,29.5150,-94.5133,0.0,23.3,2 
TCOON,ioos:station:TCOON:518:1,2013-05-01T02:00:00Z,29.5150,-94.5133,0.0,23.3,2 
TCOON,ioos:station:TCOON:518:1,2013-05-01T03:00:00Z,29.5150,-94.5133,0.0,23.3,2 
TCOON,ioos:station:TCOON:518:1,2013-05-01T04:00:00Z,29.5150,-94.5133,0.0,23.2,2 
TCOON,ioos:station:TCOON:518:1,2013-05-01T05:00:00Z,29.5150,-94.5133,0.0,23.1,2 
TCOON,ioos:station:TCOON:518:1,2013-05-01T06:00:00Z,29.5150,-94.5133,0.0,23.1,2 
TCOON,ioos:station:TCOON:518:1,2013-05-01T07:00:00Z,29.5150,-94.5133,0.0,23.0,2 
TCOON,ioos:station:TCOON:518:1,2013-05-01T08:00:00Z,29.5150,-94.5133,0.0,23.0,2 
TCOON,ioos:station:TCOON:518:1,2013-05-01T09:00:00Z,29.5150,-94.5133,0.0,22.8,2 
TCOON,ioos:station:TCOON:518:1,2013-05-01T10:00:00Z,29.5150,-94.5133,0.0,22.8,2 
TCOON,ioos:station:TCOON:518:1,2013-05-01T11:00:00Z,29.5150,-94.5133,0.0,22.6,2 
TCOON,ioos:station:TCOON:518:1,2013-05-01T12:00:00Z,29.5150,-94.5133,0.0,22.4,2 
TCOON,ioos:station:TCOON:518:1,2013-05-01T13:00:00Z,29.5150,-94.5133,0.0,22.5,2 
TCOON,ioos:station:TCOON:518:1,2013-05-01T14:00:00Z,29.5150,-94.5133,0.0,23.1,2 
TCOON,ioos:station:TCOON:518:1,2013-05-01T15:00:00Z,29.5150,-94.5133,0.0,23.4,2 
TCOON,ioos:station:TCOON:518:1,2013-05-01T16:00:00Z,29.5150,-94.5133,0.0,23.8,2 
TCOON,ioos:station:TCOON:518:1,2013-05-01T17:00:00Z,29.5150,-94.5133,0.0,24.3,2 
TCOON,ioos:station:TCOON:518:1,2013-05-01T18:00:00Z,29.5150,-94.5133,0.0,24.9,2 
TCOON,ioos:station:TCOON:518:1,2013-05-01T19:00:00Z,29.5150,-94.5133,0.0,24.6,2 
TCOON,ioos:station:TCOON:518:1,2013-05-01T20:00:00Z,29.5150,-94.5133,0.0,23.9,2 
TCOON,ioos:station:TCOON:518:1,2013-05-01T21:00:00Z,29.5150,-94.5133,0.0,23.9,2 
TCOON,ioos:station:TCOON:518:1,2013-05-01T22:00:00Z,29.5150,-94.5133,0.0,24.0,2 
TCOON,ioos:station:TCOON:518:1,2013-05-01T23:00:00Z,29.5150,-94.5133,0.0,24.3,2 
TCOON,ioos:station:TCOON:518:1,2013-05-02T00:00:00Z,29.5150,-94.5133,0.0,24.5,2 
TCOON,ioos:station:TCOON:518:1,2013-05-02T01:00:00Z,29.5150,-94.5133,0.0,24.5,2 
TCOON,ioos:station:TCOON:518:1,2013-05-02T02:00:00Z,29.5150,-94.5133,0.0,24.5,2 
TCOON,ioos:station:TCOON:518:1,2013-05-02T03:00:00Z,29.5150,-94.5133,0.0,24.6,2 
TCOON,ioos:station:TCOON:518:1,2013-05-02T04:00:00Z,29.5150,-94.5133,0.0,24.6,2 
TCOON,ioos:station:TCOON:518:1,2013-05-02T05:00:00Z,29.5150,-94.5133,0.0,24.6,2 
TCOON,ioos:station:TCOON:518:1,2013-05-02T06:00:00Z,29.5150,-94.5133,0.0,24.6,2 
TCOON,ioos:station:TCOON:518:1,2013-05-02T07:00:00Z,29.5150,-94.5133,0.0,24.5,2 
TCOON,ioos:station:TCOON:518:1,2013-05-02T08:00:00Z,29.5150,-94.5133,0.0,24.2,2 
TCOON,ioos:station:TCOON:518:1,2013-05-02T09:00:00Z,29.5150,-94.5133,0.0,24.1,2 
TCOON,ioos:station:TCOON:518:1,2013-05-02T10:00:00Z,29.5150,-94.5133,0.0,24.1,2 
TCOON,ioos:station:TCOON:518:1,2013-05-02T11:00:00Z,29.5150,-94.5133,0.0,24.2,2 
TCOON,ioos:station:TCOON:518:1,2013-05-02T12:00:00Z,29.5150,-94.5133,0.0,23.9,2 
TCOON,ioos:station:TCOON:518:1,2013-05-02T13:00:00Z,29.5150,-94.5133,0.0,23.1,2 
TCOON,ioos:station:TCOON:518:1,2013-05-02T14:00:00Z,29.5150,-94.5133,0.0,22.9,2 
TCOON,ioos:station:TCOON:518:1,2013-05-02T15:00:00Z,29.5150,-94.5133,0.0,23.3,2 
TCOON,ioos:station:TCOON:518:1,2013-05-02T16:00:00Z,29.5150,-94.5133,0.0,23.7,2 
TCOON,ioos:station:TCOON:518:1,2013-05-02T17:00:00Z,29.5150,-94.5133,0.0,24.4,2 
TCOON,ioos:station:TCOON:518:1,2013-05-02T18:00:00Z,29.5150,-94.5133,0.0,24.4,2 
TCOON,ioos:station:TCOON:518:1,2013-05-02T19:00:00Z,29.5150,-94.5133,0.0,24.6,2 
TCOON,ioos:station:TCOON:518:1,2013-05-02T20:00:00Z,29.5150,-94.5133,0.0,24.8,2 
TCOON,ioos:station:TCOON:518:1,2013-05-02T21:00:00Z,29.5150,-94.5133,0.0,24.9,2 
TCOON,ioos:station:TCOON:518:1,2013-05-02T22:00:00Z,29.5150,-94.5133,0.0,24.7,2 
TCOON,ioos:station:TCOON:518:1,2013-05-02T23:00:00Z,29.5150,-94.5133,0.0,24.2,2 
TCOON,ioos:station:TCOON:518:1,2013-05-03T00:00:00Z,29.5150,-94.5133,0.0,23.9,2 
TCOON,ioos:station:TCOON:518:1,2013-05-03T01:00:00Z,29.5150,-94.5133,0.0,23.4,2 
TCOON,ioos:station:TCOON:518:1,2013-05-03T02:00:00Z,29.5150,-94.5133,0.0,22.8,2 
TCOON,ioos:station:TCOON:518:1,2013-05-03T03:00:00Z,29.5150,-94.5133,0.0,22.4,2 
TCOON,ioos:station:TCOON:518:1,2013-05-03T04:00:00Z,29.5150,-94.5133,0.0,21.8,2 
TCOON,ioos:station:TCOON:518:1,2013-05-03T05:00:00Z,29.5150,-94.5133,0.0,21.2,2 
TCOON,ioos:station:TCOON:518:1,2013-05-03T06:00:00Z,29.5150,-94.5133,0.0,20.6,2 
TCOON,ioos:station:TCOON:518:1,2013-05-03T07:00:00Z,29.5150,-94.5133,0.0,20.0,2 
TCOON,ioos:station:TCOON:518:1,2013-05-03T08:00:00Z,29.5150,-94.5133,0.0,19.3,2 
TCOON,ioos:station:TCOON:518:1,2013-05-03T09:00:00Z,29.5150,-94.5133,0.0,18.9,2 
TCOON,ioos:station:TCOON:518:1,2013-05-03T10:00:00Z,29.5150,-94.5133,0.0,15.3,2 
TCOON,ioos:station:TCOON:518:1,2013-05-03T11:00:00Z,29.5150,-94.5133,0.0,15.3,2 
TCOON,ioos:station:TCOON:518:1,2013-05-03T12:00:00Z,29.5150,-94.5133,0.0,14.1,2 
TCOON,ioos:station:TCOON:518:1,2013-05-03T13:00:00Z,29.5150,-94.5133,0.0,12.1,2 
TCOON,ioos:station:TCOON:518:1,2013-05-03T14:00:00Z,29.5150,-94.5133,0.0,12.5,2 
TCOON,ioos:station:TCOON:518:1,2013-05-03T15:00:00Z,29.5150,-94.5133,0.0,13.5,2 
TCOON,ioos:station:TCOON:518:1,2013-05-03T16:00:00Z,29.5150,-94.5133,0.0,15.4,2 
TCOON,ioos:station:TCOON:518:1,2013-05-03T17:00:00Z,29.5150,-94.5133,0.0,16.7,2 
TCOON,ioos:station:TCOON:518:1,2013-05-03T18:00:00Z,29.5150,-94.5133,0.0,17.6,2 
TCOON,ioos:station:TCOON:518:1,2013-05-03T19:00:00Z,29.5150,-94.5133,0.0,17.6,2 
TCOON,ioos:station:TCOON:518:1,2013-05-03T20:00:00Z,29.5150,-94.5133,0.0,18.5,2 
TCOON,ioos:station:TCOON:518:1,2013-05-03T21:00:00Z,29.5150,-94.5133,0.0,17.8,2 
TCOON,ioos:station:TCOON:518:1,2013-05-03T22:00:00Z,29.5150,-94.5133,0.0,18.1,2 
TCOON,ioos:station:TCOON:518:1,2013-05-03T23:00:00Z,29.5150,-94.5133,0.0,19.6,2 
TCOON,ioos:station:TCOON:518:1,2013-05-04T00:00:00Z,29.5150,-94.5133,0.0,17.8,2 
TCOON,ioos:station:TCOON:518:1,2013-05-04T01:00:00Z,29.5150,-94.5133,0.0,16.5,2 
TCOON,ioos:station:TCOON:518:1,2013-05-04T02:00:00Z,29.5150,-94.5133,0.0,15.8,2 
TCOON,ioos:station:TCOON:518:1,2013-05-04T03:00:00Z,29.5150,-94.5133,0.0,14.5,2 
TCOON,ioos:station:TCOON:518:1,2013-05-04T04:00:00Z,29.5150,-94.5133,0.0,14.4,2 
TCOON,ioos:station:TCOON:518:1,2013-05-04T05:00:00Z,29.5150,-94.5133,0.0,16.3,2 
TCOON,ioos:station:TCOON:518:1,2013-05-04T06:00:00Z,29.5150,-94.5133,0.0,16.3,2 
TCOON,ioos:station:TCOON:518:1,2013-05-04T07:00:00Z,29.5150,-94.5133,0.0,16.2,2 
TCOON,ioos:station:TCOON:518:1,2013-05-04T08:00:00Z,29.5150,-94.5133,0.0,16.6,2 
TCOON,ioos:station:TCOON:518:1,2013-05-04T09:00:00Z,29.5150,-94.5133,0.0,17.4,2 
TCOON,ioos:station:TCOON:518:1,2013-05-04T10:00:00Z,29.5150,-94.5133,0.0,17.7,2 
TCOON,ioos:station:TCOON:518:1,2013-05-04T11:00:00Z,29.5150,-94.5133,0.0,17.6,2 
TCOON,ioos:station:TCOON:518:1,2013-05-04T12:00:00Z,29.5150,-94.5133,0.0,17.2,2 
TCOON,ioos:station:TCOON:518:1,2013-05-04T13:00:00Z,29.5150,-94.5133,0.0,17.0,2 
TCOON,ioos:station:TCOON:518:1,2013-05-04T14:00:00Z,29.5150,-94.5133,0.0,17.1,2 
TCOON,ioos:station:TCOON:518:1,2013-05-04T15:00:00Z,29.5150,-94.5133,0.0,17.5,2 
TCOON,ioos:station:TCOON:518:1,2013-05-04T16:00:00Z,29.5150,-94.5133,0.0,17.5,2 
TCOON,ioos:station:TCOON:518:1,2013-05-04T17:00:00Z,29.5150,-94.5133,0.0,18.1,2 
TCOON,ioos:station:TCOON:518:1,2013-05-04T18:00:00Z,29.5150,-94.5133,0.0,18.3,2 
TCOON,ioos:station:TCOON:518:1,2013-05-04T19:00:00Z,29.5150,-94.5133,0.0,18.5,2 
TCOON,ioos:station:TCOON:518:1,2013-05-04T20:00:00Z,29.5150,-94.5133,0.0,18.7,2 
TCOON,ioos:station:TCOON:518:1,2013-05-04T21:00:00Z,29.5150,-94.5133,0.0,18.8,2 
TCOON,ioos:station:TCOON:518:1,2013-05-04T22:00:00Z,29.5150,-94.5133,0.0,19.0,2 
TCOON,ioos:station:TCOON:518:1,2013-05-04T23:00:00Z,29.5150,-94.5133,0.0,19.4,2 
TCOON,ioos:station:TCOON:518:1,2013-05-05T00:00:00Z,29.5150,-94.5133,0.0,19.2,2 
TCOON,ioos:station:TCOON:518:1,2013-05-05T01:00:00Z,29.5150,-94.5133,0.0,19.0,2 
TCOON,ioos:station:TCOON:518:1,2013-05-05T02:00:00Z,29.5150,-94.5133,0.0,18.8,2 
TCOON,ioos:station:TCOON:518:1,2013-05-05T03:00:00Z,29.5150,-94.5133,0.0,18.6,2 
TCOON,ioos:station:TCOON:518:1,2013-05-05T04:00:00Z,29.5150,-94.5133,0.0,18.4,2 
TCOON,ioos:station:TCOON:518:1,2013-05-05T05:00:00Z,29.5150,-94.5133,0.0,18.4,2 
TCOON,ioos:station:TCOON:518:1,2013-05-05T06:00:00Z,29.5150,-94.5133,0.0,18.2,2 
TCOON,ioos:station:TCOON:518:1,2013-05-05T07:00:00Z,29.5150,-94.5133,0.0,18.1,2 
TCOON,ioos:station:TCOON:518:1,2013-05-05T08:00:00Z,29.5150,-94.5133,0.0,18.0,2 
TCOON,ioos:station:TCOON:518:1,2013-05-05T09:00:00Z,29.5150,-94.5133,0.0,17.9,2 
TCOON,ioos:station:TCOON:518:1,2013-05-05T10:00:00Z,29.5150,-94.5133,0.0,17.7,2 
TCOON,ioos:station:TCOON:518:1,2013-05-05T11:00:00Z,29.5150,-94.5133,0.0,17.4,2 
TCOON,ioos:station:TCOON:518:1,2013-05-05T12:00:00Z,29.5150,-94.5133,0.0,17.2,2 
TCOON,ioos:station:TCOON:518:1,2013-05-05T13:00:00Z,29.5150,-94.5133,0.0,16.9,2 
TCOON,ioos:station:TCOON:518:1,2013-05-05T14:00:00Z,29.5150,-94.5133,0.0,15.7,2 
TCOON,ioos:station:TCOON:518:1,2013-05-05T15:00:00Z,29.5150,-94.5133,0.0,16.3,2 
TCOON,ioos:station:TCOON:518:1,2013-05-05T16:00:00Z,29.5150,-94.5133,0.0,17.9,2 
TCOON,ioos:station:TCOON:518:1,2013-05-05T17:00:00Z,29.5150,-94.5133,0.0,19.2,2 
TCOON,ioos:station:TCOON:518:1,2013-05-05T18:00:00Z,29.5150,-94.5133,0.0,19.6,2 
TCOON,ioos:station:TCOON:518:1,2013-05-05T19:00:00Z,29.5150,-94.5133,0.0,19.6,2 
TCOON,ioos:station:TCOON:518:1,2013-05-05T20:00:00Z,29.5150,-94.5133,0.0,20.1,2 
TCOON,ioos:station:TCOON:518:1,2013-05-05T21:00:00Z,29.5150,-94.5133,0.0,20.8,2 
TCOON,ioos:station:TCOON:518:1,2013-05-05T22:00:00Z,29.5150,-94.5133,0.0,20.9,2 
TCOON,ioos:station:TCOON:518:1,2013-05-05T23:00:00Z,29.5150,-94.5133,0.0,21.0,2 
TCOON,ioos:station:TCOON:518:1,2013-05-06T00:00:00Z,29.5150,-94.5133,0.0,22.9,2 
TCOON,ioos:station:TCOON:518:1,2013-05-06T01:00:00Z,29.5150,-94.5133,0.0,21.7,2 
TCOON,ioos:station:TCOON:518:1,2013-05-06T02:00:00Z,29.5150,-94.5133,0.0,20.0,2 
TCOON,ioos:station:TCOON:518:1,2013-05-06T03:00:00Z,29.5150,-94.5133,0.0,18.5,11111222 
TCOON,ioos:station:TCOON:518:1,2013-05-06T04:00:00Z,29.5150,-94.5133,0.0,17.3,2 
TCOON,ioos:station:TCOON:518:1,2013-05-06T05:00:00Z,29.5150,-94.5133,0.0,17.0,2 
TCOON,ioos:station:TCOON:518:1,2013-05-06T06:00:00Z,29.5150,-94.5133,0.0,17.5,2 
TCOON,ioos:station:TCOON:518:1,2013-05-06T07:00:00Z,29.5150,-94.5133,0.0,17.9,2 
TCOON,ioos:station:TCOON:518:1,2013-05-06T08:00:00Z,29.5150,-94.5133,0.0,18.5,2 
TCOON,ioos:station:TCOON:518:1,2013-05-06T09:00:00Z,29.5150,-94.5133,0.0,18.1,2 
TCOON,ioos:station:TCOON:518:1,2013-05-06T10:00:00Z,29.5150,-94.5133,0.0,19.0,2 
TCOON,ioos:station:TCOON:518:1,2013-05-06T11:00:00Z,29.5150,-94.5133,0.0,19.2,2 
TCOON,ioos:station:TCOON:518:1,2013-05-06T12:00:00Z,29.5150,-94.5133,0.0,18.4,2 
TCOON,ioos:station:TCOON:518:1,2013-05-06T13:00:00Z,29.5150,-94.5133,0.0,18.5,2 
TCOON,ioos:station:TCOON:518:1,2013-05-06T14:00:00Z,29.5150,-94.5133,0.0,18.3,2 
TCOON,ioos:station:TCOON:518:1,2013-05-06T15:00:00Z,29.5150,-94.5133,0.0,18.5,2 
TCOON,ioos:station:TCOON:518:1,2013-05-06T16:00:00Z,29.5150,-94.5133,0.0,19.2,2 
TCOON,ioos:station:TCOON:518:1,2013-05-06T17:00:00Z,29.5150,-94.5133,0.0,19.6,2 
TCOON,ioos:station:TCOON:518:1,2013-05-06T18:00:00Z,29.5150,-94.5133,0.0,20.3,2 
TCOON,ioos:station:TCOON:518:1,2013-05-06T19:00:00Z,29.5150,-94.5133,0.0,20.5,2 
TCOON,ioos:station:TCOON:518:1,2013-05-06T20:00:00Z,29.5150,-94.5133,0.0,20.8,2 
TCOON,ioos:station:TCOON:518:1,2013-05-06T21:00:00Z,29.5150,-94.5133,0.0,21.0,2 
TCOON,ioos:station:TCOON:518:1,2013-05-06T22:00:00Z,29.5150,-94.5133,0.0,21.5,2 
TCOON,ioos:station:TCOON:518:1,2013-05-06T23:00:00Z,29.5150,-94.5133,0.0,21.3,2 
TCOON,ioos:station:TCOON:518:1,2013-05-07T00:00:00Z,29.5150,-94.5133,0.0,20.8,2 
TCOON,ioos:station:TCOON:518:1,2013-05-07T01:00:00Z,29.5150,-94.5133,0.0,20.6,2 
TCOON,ioos:station:TCOON:518:1,2013-05-07T02:00:00Z,29.5150,-94.5133,0.0,20.4,2 
TCOON,ioos:station:TCOON:518:1,2013-05-07T03:00:00Z,29.5150,-94.5133,0.0,20.2,2 
TCOON,ioos:station:TCOON:518:1,2013-05-07T04:00:00Z,29.5150,-94.5133,0.0,19.9,2 
TCOON,ioos:station:TCOON:518:1,2013-05-07T05:00:00Z,29.5150,-94.5133,0.0,19.6,2 
TCOON,ioos:station:TCOON:518:1,2013-05-07T06:00:00Z,29.5150,-94.5133,0.0,19.4,2 
TCOON,ioos:station:TCOON:518:1,2013-05-07T07:00:00Z,29.5150,-94.5133,0.0,19.8,2 
TCOON,ioos:station:TCOON:518:1,2013-05-07T08:00:00Z,29.5150,-94.5133,0.0,19.7,2 
TCOON,ioos:station:TCOON:518:1,2013-05-07T09:00:00Z,29.5150,-94.5133,0.0,19.6,2 
TCOON,ioos:station:TCOON:518:1,2013-05-07T10:00:00Z,29.5150,-94.5133,0.0,19.6,2 
TCOON,ioos:station:TCOON:518:1,2013-05-07T11:00:00Z,29.5150,-94.5133,0.0,19.4,2 
TCOON,ioos:station:TCOON:518:1,2013-05-07T12:00:00Z,29.5150,-94.5133,0.0,19.3,2 
TCOON,ioos:station:TCOON:518:1,2013-05-07T13:00:00Z,29.5150,-94.5133,0.0,19.2,2 
TCOON,ioos:station:TCOON:518:1,2013-05-07T14:00:00Z,29.5150,-94.5133,0.0,19.4,2 
TCOON,ioos:station:TCOON:518:1,2013-05-07T15:00:00Z,29.5150,-94.5133,0.0,19.8,2 
TCOON,ioos:station:TCOON:518:1,2013-05-07T16:00:00Z,29.5150,-94.5133,0.0,20.3,2 
TCOON,ioos:station:TCOON:518:1,2013-05-07T17:00:00Z,29.5150,-94.5133,0.0,21.2,2 
TCOON,ioos:station:TCOON:518:1,2013-05-07T18:00:00Z,29.5150,-94.5133,0.0,21.8,2 
TCOON,ioos:station:TCOON:518:1,2013-05-07T19:00:00Z,29.5150,-94.5133,0.0,23.3,2 
TCOON,ioos:station:TCOON:518:1,2013-05-07T20:00:00Z,29.5150,-94.5133,0.0,22.7,2 
TCOON,ioos:station:TCOON:518:1,2013-05-07T21:00:00Z,29.5150,-94.5133,0.0,22.1,2 
TCOON,ioos:station:TCOON:518:1,2013-05-07T22:00:00Z,29.5150,-94.5133,0.0,22.2,2 
TCOON,ioos:station:TCOON:518:1,2013-05-07T23:00:00Z,29.5150,-94.5133,0.0,22.0,2 
TCOON,ioos:station:TCOON:518:1,2013-05-08T00:00:00Z,29.5150,-94.5133,0.0,22.3,2 
TCOON,ioos:station:TCOON:518:1,2013-05-08T01:00:00Z,29.5150,-94.5133,0.0,22.4,2 
TCOON,ioos:station:TCOON:518:1,2013-05-08T02:00:00Z,29.5150,-94.5133,0.0,22.4,2 
TCOON,ioos:station:TCOON:518:1,2013-05-08T03:00:00Z,29.5150,-94.5133,0.0,22.0,2 
TCOON,ioos:station:TCOON:518:1,2013-05-08T04:00:00Z,29.5150,-94.5133,0.0,21.7,2 
TCOON,ioos:station:TCOON:518:1,2013-05-08T05:00:00Z,29.5150,-94.5133,0.0,21.4,2 
TCOON,ioos:station:TCOON:518:1,2013-05-08T06:00:00Z,29.5150,-94.5133,0.0,21.0,2 
TCOON,ioos:station:TCOON:518:1,2013-05-08T07:00:00Z,29.5150,-94.5133,0.0,21.4,2 
TCOON,ioos:station:TCOON:518:1,2013-05-08T08:00:00Z,29.5150,-94.5133,0.0,21.5,2 
TCOON,ioos:station:TCOON:518:1,2013-05-08T09:00:00Z,29.5150,-94.5133,0.0,21.4,2 
TCOON,ioos:station:TCOON:518:1,2013-05-08T10:00:00Z,29.5150,-94.5133,0.0,21.3,2 
TCOON,ioos:station:TCOON:518:1,2013-05-08T11:00:00Z,29.5150,-94.5133,0.0,21.2,2 
TCOON,ioos:station:TCOON:518:1,2013-05-08T12:00:00Z,29.5150,-94.5133,0.0,21.3,2 
TCOON,ioos:station:TCOON:518:1,2013-05-08T13:00:00Z,29.5150,-94.5133,0.0,21.4,2 
TCOON,ioos:station:TCOON:518:1,2013-05-08T14:00:00Z,29.5150,-94.5133,0.0,21.5,2 
TCOON,ioos:station:TCOON:518:1,2013-05-08T15:00:00Z,29.5150,-94.5133,0.0,21.7,2 
TCOON,ioos:station:TCOON:518:1,2013-05-08T16:00:00Z,29.5150,-94.5133,0.0,21.8,2 
TCOON,ioos:station:TCOON:518:1,2013-05-08T17:00:00Z,29.5150,-94.5133,0.0,22.1,2 
TCOON,ioos:station:TCOON:518:1,2013-05-08T18:00:00Z,29.5150,-94.5133,0.0,22.4,2 
TCOON,ioos:station:TCOON:518:1,2013-05-08T19:00:00Z,29.5150,-94.5133,0.0,23.1,2 
TCOON,ioos:station:TCOON:518:1,2013-05-08T20:00:00Z,29.5150,-94.5133,0.0,22.9,2 
TCOON,ioos:station:TCOON:518:1,2013-05-08T21:00:00Z,29.5150,-94.5133,0.0,23.0,2 
TCOON,ioos:station:TCOON:518:1,2013-05-08T22:00:00Z,29.5150,-94.5133,0.0,24.3,2 
TCOON,ioos:station:TCOON:518:1,2013-05-08T23:00:00Z,29.5150,-94.5133,0.0,23.4,2 
TCOON,ioos:station:TCOON:518:1,2013-05-09T00:00:00Z,29.5150,-94.5133,0.0,23.3,2 
TCOON,ioos:station:TCOON:518:1,2013-05-09T01:00:00Z,29.5150,-94.5133,0.0,25.3,2 
TCOON,ioos:station:TCOON:518:1,2013-05-09T02:00:00Z,29.5150,-94.5133,0.0,24.2,2 
TCOON,ioos:station:TCOON:518:1,2013-05-09T03:00:00Z,29.5150,-94.5133,0.0,23.1,2 
TCOON,ioos:station:TCOON:518:1,2013-05-09T04:00:00Z,29.5150,-94.5133,0.0,22.6,2 
TCOON,ioos:station:TCOON:518:1,2013-05-09T05:00:00Z,29.5150,-94.5133,0.0,21.9,2 
TCOON,ioos:station:TCOON:518:1,2013-05-09T06:00:00Z,29.5150,-94.5133,0.0,21.8,2 
TCOON,ioos:station:TCOON:518:1,2013-05-09T07:00:00Z,29.5150,-94.5133,0.0,22.3,2 
TCOON,ioos:station:TCOON:518:1,2013-05-09T08:00:00Z,29.5150,-94.5133,0.0,22.3,2 
TCOON,ioos:station:TCOON:518:1,2013-05-09T09:00:00Z,29.5150,-94.5133,0.0,22.2,2 
TCOON,ioos:station:TCOON:518:1,2013-05-09T10:00:00Z,29.5150,-94.5133,0.0,22.2,2 
TCOON,ioos:station:TCOON:518:1,2013-05-09T11:00:00Z,29.5150,-94.5133,0.0,22.1,2 
TCOON,ioos:station:TCOON:518:1,2013-05-09T12:00:00Z,29.5150,-94.5133,0.0,21.8,2 
TCOON,ioos:station:TCOON:518:1,2013-05-09T13:00:00Z,29.5150,-94.5133,0.0,22.0,2 
TCOON,ioos:station:TCOON:518:1,2013-05-09T14:00:00Z,29.5150,-94.5133,0.0,21.8,2 
TCOON,ioos:station:TCOON:518:1,2013-05-09T15:00:00Z,29.5150,-94.5133,0.0,22.2,2 
TCOON,ioos:station:TCOON:518:1,2013-05-09T16:00:00Z,29.5150,-94.5133,0.0,22.2,2 
TCOON,ioos:station:TCOON:518:1,2013-05-09T17:00:00Z,29.5150,-94.5133,0.0,22.3,2 
TCOON,ioos:station:TCOON:518:1,2013-05-09T18:00:00Z,29.5150,-94.5133,0.0,22.5,2 
TCOON,ioos:station:TCOON:518:1,2013-05-09T19:00:00Z,29.5150,-94.5133,0.0,22.9,2 
TCOON,ioos:station:TCOON:518:1,2013-05-09T20:00:00Z,29.5150,-94.5133,0.0,23.8,2 
TCOON,ioos:station:TCOON:518:1,2013-05-09T21:00:00Z,29.5150,-94.5133,0.0,22.9,2 
TCOON,ioos:station:TCOON:518:1,2013-05-09T22:00:00Z,29.5150,-94.5133,0.0,23.0,2 
TCOON,ioos:station:TCOON:518:1,2013-05-09T23:00:00Z,29.5150,-94.5133,0.0,24.3,2 
TCOON,ioos:station:TCOON:518:1,2013-05-10T00:00:00Z,29.5150,-94.5133,0.0,24.0,2 
TCOON,ioos:station:TCOON:518:1,2013-05-10T01:00:00Z,29.5150,-94.5133,0.0,23.5,2 
TCOON,ioos:station:TCOON:518:1,2013-05-10T02:00:00Z,29.5150,-94.5133,0.0,22.7,2 
TCOON,ioos:station:TCOON:518:1,2013-05-10T03:00:00Z,29.5150,-94.5133,0.0,22.6,2 
TCOON,ioos:station:TCOON:518:1,2013-05-10T04:00:00Z,29.5150,-94.5133,0.0,22.6,2 
TCOON,ioos:station:TCOON:518:1,2013-05-10T05:00:00Z,29.5150,-94.5133,0.0,22.6,2 
TCOON,ioos:station:TCOON:518:1,2013-05-10T06:00:00Z,29.5150,-94.5133,0.0,22.5,2 
TCOON,ioos:station:TCOON:518:1,2013-05-10T07:00:00Z,29.5150,-94.5133,0.0,22.6,2 
TCOON,ioos:station:TCOON:518:1,2013-05-10T08:00:00Z,29.5150,-94.5133,0.0,22.6,2 
TCOON,ioos:station:TCOON:518:1,2013-05-10T09:00:00Z,29.5150,-94.5133,0.0,22.6,2 
TCOON,ioos:station:TCOON:518:1,2013-05-10T10:00:00Z,29.5150,-94.5133,0.0,22.0,2 
TCOON,ioos:station:TCOON:518:1,2013-05-10T11:00:00Z,29.5150,-94.5133,0.0,21.3,2 
TCOON,ioos:station:TCOON:518:1,2013-05-10T12:00:00Z,29.5150,-94.5133,0.0,20.9,2 
TCOON,ioos:station:TCOON:518:1,2013-05-10T13:00:00Z,29.5150,-94.5133,0.0,20.9,2 
TCOON,ioos:station:TCOON:518:1,2013-05-10T14:00:00Z,29.5150,-94.5133,0.0,21.7,2 
TCOON,ioos:station:TCOON:518:1,2013-05-10T15:00:00Z,29.5150,-94.5133,0.0,22.3,2 
TCOON,ioos:station:TCOON:518:1,2013-05-10T16:00:00Z,29.5150,-94.5133,0.0,22.3,2 
TCOON,ioos:station:TCOON:518:1,2013-05-10T17:00:00Z,29.5150,-94.5133,0.0,22.2,2 
TCOON,ioos:station:TCOON:518:1,2013-05-10T18:00:00Z,29.5150,-94.5133,0.0,21.9,2 
TCOON,ioos:station:TCOON:518:1,2013-05-10T19:00:00Z,29.5150,-94.5133,0.0,21.6,2 
TCOON,ioos:station:TCOON:518:1,2013-05-10T20:00:00Z,29.5150,-94.5133,0.0,21.9,2 
TCOON,ioos:station:TCOON:518:1,2013-05-10T21:00:00Z,29.5150,-94.5133,0.0,22.3,2 
TCOON,ioos:station:TCOON:518:1,2013-05-10T22:00:00Z,29.5150,-94.5133,0.0,22.4,2 
TCOON,ioos:station:TCOON:518:1,2013-05-10T23:00:00Z,29.5150,-94.5133,0.0,22.9,2 
TCOON,ioos:station:TCOON:518:1,2013-05-11T00:00:00Z,29.5150,-94.5133,0.0,23.0,2 
TCOON,ioos:station:TCOON:518:1,2013-05-11T01:00:00Z,29.5150,-94.5133,0.0,23.3,2 
TCOON,ioos:station:TCOON:518:1,2013-05-11T02:00:00Z,29.5150,-94.5133,0.0,22.4,2 
TCOON,ioos:station:TCOON:518:1,2013-05-11T03:00:00Z,29.5150,-94.5133,0.0,22.2,2 
TCOON,ioos:station:TCOON:518:1,2013-05-11T04:00:00Z,29.5150,-94.5133,0.0,22.3,2 
TCOON,ioos:station:TCOON:518:1,2013-05-11T05:00:00Z,29.5150,-94.5133,0.0,22.1,2 
TCOON,ioos:station:TCOON:518:1,2013-05-11T06:00:00Z,29.5150,-94.5133,0.0,21.8,2 
TCOON,ioos:station:TCOON:518:1,2013-05-11T07:00:00Z,29.5150,-94.5133,0.0,21.3,2 
TCOON,ioos:station:TCOON:518:1,2013-05-11T08:00:00Z,29.5150,-94.5133,0.0,21.3,2 
TCOON,ioos:station:TCOON:518:1,2013-05-11T09:00:00Z,29.5150,-94.5133,0.0,21.0,2 
TCOON,ioos:station:TCOON:518:1,2013-05-11T10:00:00Z,29.5150,-94.5133,0.0,21.1,2 
TCOON,ioos:station:TCOON:518:1,2013-05-11T11:00:00Z,29.5150,-94.5133,0.0,21.3,2 
TCOON,ioos:station:TCOON:518:1,2013-05-11T12:00:00Z,29.5150,-94.5133,0.0,21.0,2 
TCOON,ioos:station:TCOON:518:1,2013-05-11T13:00:00Z,29.5150,-94.5133,0.0,21.0,2 
TCOON,ioos:station:TCOON:518:1,2013-05-11T14:00:00Z,29.5150,-94.5133,0.0,21.0,2 
TCOON,ioos:station:TCOON:518:1,2013-05-11T15:00:00Z,29.5150,-94.5133,0.0,20.9,2 
TCOON,ioos:station:TCOON:518:1,2013-05-11T16:00:00Z,29.5150,-94.5133,0.0,20.8,2 
TCOON,ioos:station:TCOON:518:1,2013-05-11T17:00:00Z,29.5150,-94.5133,0.0,21.0,2 
TCOON,ioos:station:TCOON:518:1,2013-05-11T18:00:00Z,29.5150,-94.5133,0.0,21.5,2 
TCOON,ioos:station:TCOON:518:1,2013-05-11T19:00:00Z,29.5150,-94.5133,0.0,22.0,2 
TCOON,ioos:station:TCOON:518:1,2013-05-11T20:00:00Z,29.5150,-94.5133,0.0,22.2,2 
TCOON,ioos:station:TCOON:518:1,2013-05-11T21:00:00Z,29.5150,-94.5133,0.0,22.2,2 
TCOON,ioos:station:TCOON:518:1,2013-05-11T22:00:00Z,29.5150,-94.5133,0.0,23.0,2 
TCOON,ioos:station:TCOON:518:1,2013-05-11T23:00:00Z,29.5150,-94.5133,0.0,24.3,2 
TCOON,ioos:station:TCOON:518:1,2013-05-12T00:00:00Z,29.5150,-94.5133,0.0,23.0,2 
TCOON,ioos:station:TCOON:518:1,2013-05-12T01:00:00Z,29.5150,-94.5133,0.0,22.5,2 
TCOON,ioos:station:TCOON:518:1,2013-05-12T02:00:00Z,29.5150,-94.5133,0.0,22.3,2 
TCOON,ioos:station:TCOON:518:1,2013-05-12T03:00:00Z,29.5150,-94.5133,0.0,22.3,2 
TCOON,ioos:station:TCOON:518:1,2013-05-12T04:00:00Z,29.5150,-94.5133,0.0,22.2,2 
TCOON,ioos:station:TCOON:518:1,2013-05-12T05:00:00Z,29.5150,-94.5133,0.0,21.9,2 
TCOON,ioos:station:TCOON:518:1,2013-05-12T06:00:00Z,29.5150,-94.5133,0.0,22.4,2 
TCOON,ioos:station:TCOON:518:1,2013-05-12T07:00:00Z,29.5150,-94.5133,0.0,21.7,2 
TCOON,ioos:station:TCOON:518:1,2013-05-12T08:00:00Z,29.5150,-94.5133,0.0,21.4,2 
TCOON,ioos:station:TCOON:518:1,2013-05-12T09:00:00Z,29.5150,-94.5133,0.0,21.1,2 
TCOON,ioos:station:TCOON:518:1,2013-05-12T10:00:00Z,29.5150,-94.5133,0.0,20.5,2 
TCOON,ioos:station:TCOON:518:1,2013-05-12T11:00:00Z,29.5150,-94.5133,0.0,20.3,2 
TCOON,ioos:station:TCOON:518:1,2013-05-12T12:00:00Z,29.5150,-94.5133,0.0,21.3,2 
TCOON,ioos:station:TCOON:518:1,2013-05-12T13:00:00Z,29.5150,-94.5133,0.0,21.4,2 
TCOON,ioos:station:TCOON:518:1,2013-05-12T14:00:00Z,29.5150,-94.5133,0.0,21.4,2 
TCOON,ioos:station:TCOON:518:1,2013-05-12T15:00:00Z,29.5150,-94.5133,0.0,21.8,2 
TCOON,ioos:station:TCOON:518:1,2013-05-12T16:00:00Z,29.5150,-94.5133,0.0,22.6,2 
TCOON,ioos:station:TCOON:518:1,2013-05-12T17:00:00Z,29.5150,-94.5133,0.0,23.2,2 
TCOON,ioos:station:TCOON:518:1,2013-05-12T18:00:00Z,29.5150,-94.5133,0.0,23.5,2 
TCOON,ioos:station:TCOON:518:1,2013-05-12T19:00:00Z,29.5150,-94.5133,0.0,25.1,2 
TCOON,ioos:station:TCOON:518:1,2013-05-12T20:00:00Z,29.5150,-94.5133,0.0,25.3,2 
TCOON,ioos:station:TCOON:518:1,2013-05-12T21:00:00Z,29.5150,-94.5133,0.0,23.3,2 
TCOON,ioos:station:TCOON:518:1,2013-05-12T22:00:00Z,29.5150,-94.5133,0.0,23.7,2 
TCOON,ioos:station:TCOON:518:1,2013-05-12T23:00:00Z,29.5150,-94.5133,0.0,23.8,2 
TCOON,ioos:station:TCOON:518:1,2013-05-13T00:00:00Z,29.5150,-94.5133,0.0,24.1,2 
TCOON,ioos:station:TCOON:518:1,2013-05-13T01:00:00Z,29.5150,-94.5133,0.0,23.9,2 
TCOON,ioos:station:TCOON:518:1,2013-05-13T02:00:00Z,29.5150,-94.5133,0.0,23.7,2 
TCOON,ioos:station:TCOON:518:1,2013-05-13T03:00:00Z,29.5150,-94.5133,0.0,23.2,2 
TCOON,ioos:station:TCOON:518:1,2013-05-13T04:00:00Z,29.5150,-94.5133,0.0,23.0,2 
TCOON,ioos:station:TCOON:518:1,2013-05-13T05:00:00Z,29.5150,-94.5133,0.0,22.6,2 
TCOON,ioos:station:TCOON:518:1,2013-05-13T06:00:00Z,29.5150,-94.5133,0.0,22.4,2 